STARLINK-30113 (56291 NORAD) Tracking and Keplerian Element Data

This shows tracking and keplerian element data for the satellite.

Feedback or suggestion? Click here.




ElementValue
Catalog56291
NameSTARLINK-30113
Epoch Orbit324
Epoch Day127.25001157
Epoch Year2023
RAAN97.7659
Inclination43.0026
Eccentricity0.0001403
Argument of Perigee268.4335
Mean Anonmoly118.3668
Mean Motion15.39932251
Decay Rate-0.01354551
L11 56291U 23056F 23127.25001157 -.01354551 00000+0 -36458-1 0 9997
L22 56291 43.0026 97.7659 0001403 268.4335 118.3668 15.39932251 3244



Live tracking and technical data element details for STARLINK-30113 (NORAD 56291). STARLINK-30113 can be tracked NOW for your location showing map with azimuth and elevation plus other details from your city location.







IsCatalogInMostPopularTable: catalog: 56291, numindb: 4
Update: records affected: 1



GetName: 56291 STARLINK-30113

Hit Count: updated at: Mon, 05 Jun 2023 00:29:54 GMT